Location: Newark
(37.9800°N, 91.3000°W)
Time: 15:12:52
(UTC+00:00)

SRMSAT - Visible Passes

Search period start: 09 December 2019 00:00
Search period end: 19 December 2019 00:00
Orbit: 848 x 865 km, 20.0° (Epoch: 08 December)

Date Brightness Start Highest point End Pass type
(mag) Time Alt. Az. Time Alt. Az. Time Alt. Az.
09 Dec ? 10:44:05 12° SSW 10:45:36 13° S 10:48:13 10° SSE visible
09 Dec ? 12:32:28 10° SSW 12:33:53 11° S 12:35:18 10° S visible
10 Dec ? 10:32:02 13° S 10:32:31 13° S 10:35:08 10° SSE visible
10 Dec ? 12:20:15 10° SSW 12:20:47 10° S 12:21:19 10° S visible
11 Dec ? 10:19:58 13° S 10:19:58 13° S 10:22:00 10° SSE visible
12 Dec ? 10:07:53 12° SSE 10:07:53 12° SSE 10:08:49 10° SSE visible
